CW4354 Weather Reports


Display with metric or nautical units.
time (UTC)temp
F
wind
direction
speed
MPH
gust
MPH
rain 1hr
in
rain 24hr
in
rain mn
in
humidity
%
barometer
mb
20260505223046 79 0 0.0 0.0 0.00 0.01 0.01 38 1007.6
20260505221557 79 0 0.0 4.0 0.00 0.01 0.01 38 1007.7
20260505220053 79 0 0.0 1.0 0.00 0.01 0.01 35 1007.8
20260505214547 80 0 0.0 2.0 0.00 0.01 0.01 36 1007.8
20260505213045 80 0 0.0 10.0 0.00 0.01 0.01 34 1007.6
20260505211543 82 0 0.0 6.0 0.00 0.01 0.01 33 1007.4
20260505210041 82 0 1.0 9.0 0.00 0.01 0.01 34 1007.2
20260505204553 82 296 1.0 3.0 0.00 0.01 0.01 32 1007.4
20260505203056 83 0 0.0 3.0 0.00 0.01 0.01 33 1007.5
20260505201548 83 239 2.0 7.0 0.00 0.01 0.01 31 1007.3
20260505200050 83 142 2.0 10.0 0.00 0.01 0.01 34 1007.4
20260505194604 83 0 0.0 9.0 0.00 0.01 0.01 34 1007.4
20260505193049 83 0 0.0 0.0 0.00 0.01 0.01 34 1007.4
20260505191604 83 0 0.0 0.0 0.00 0.01 0.01 34 1007.7
20260505190050 83 0 0.0 0.0 0.00 0.01 0.01 34 1007.7
20260505184547 84 0 0.0 0.0 0.00 0.01 0.01 34 1008.0
20260505183042 84 0 0.0 0.0 0.00 0.01 0.01 38 1008.3
20260505181552 83 0 0.0 0.0 0.00 0.01 0.01 34 1008.4
20260505180056 83 0 0.0 3.0 0.00 0.01 0.01 37 1008.5
20260505174552 83 0 0.0 8.0 0.00 0.01 0.01 36 1008.5
20260505173108 82 0 0.0 2.0 0.00 0.01 0.01 40 1008.5
20260505171608 83 0 0.0 3.0 0.00 0.01 0.01 44 1008.8
20260505170049 82 0 0.0 0.0 0.00 0.01 0.01 45 1009.0
20260505164543 82 0 0.0 1.0 0.00 0.01 0.01 45 1009.1
20260505163042 81 282 0.0 1.0 0.00 0.01 0.01 45 1009.4
20260505161553 80 0 0.0 1.0 0.00 0.01 0.01 46 1009.5
20260505153042 78 0 0.0 0.0 0.00 0.01 0.01 51 1009.9
20260505151541 76 0 0.0 0.0 0.00 0.01 0.01 53 1010.1
20260505124550 61 0 0.0 0.0 0.00 0.01 0.01 82 1011.1
20260505123058 60 0 0.0 0.0 0.00 0.01 0.01 90 1011.1
20260505121617 57 0 0.0 0.0 0.00 0.01 0.01 97 1011.1
20260505120051 55 0 0.0 0.0 0.00 0.01 0.01 97 1010.8
20260505114541 54 0 0.0 0.0 0.00 0.01 0.01 97 1010.8
20260505113048 52 0 0.0 0.0 0.00 0.01 0.01 97 1011.0
20260505111548 51 0 0.0 0.0 0.00 0.01 0.01 96 1011.1
20260505101546 50 0 0.0 0.0 0.01 0.01 0.01 94 1010.9
20260505100123 50 0 0.0 0.0 0.01 0.01 0.01 93 1011.0
20260505094550 50 0 0.0 0.0 0.01 0.01 0.01 92 1010.6
20260505093052 49 0 0.0 0.0 0.00 0.00 0.00 90 1011.0
20260505091602 49 0 0.0 0.0 0.00 0.00 0.00 90 1010.4
20260505090058 50 0 0.0 0.0 0.00 0.00 0.00 89 1010.2
20260505084540 50 0 0.0 0.0 0.00 0.00 0.00 89 1010.1
20260505083052 49 0 0.0 0.0 0.00 0.00 0.00 89 1010.0
20260505081546 50 0 0.0 0.0 0.00 0.00 0.00 88 1010.1
20260505080049 50 0 0.0 0.0 0.00 0.00 0.00 88 1010.1
20260505074549 50 0 0.0 0.0 0.00 0.00 0.00 88 1010.0
20260505073057 49 0 0.0 0.0 0.00 0.00 0.00 88 1009.9
20260505071547 49 0 0.0 0.0 0.00 0.00 0.00 88 1010.0
20260505070047 49 0 0.0 0.0 0.00 0.00 0.00 88 1010.1
20260505064542 48 0 0.0 0.0 0.00 0.00 0.00 88 1010.0
20260505063048 48 0 0.0 0.0 0.00 0.00 0.00 87 1010.1
20260505061552 48 0 0.0 0.0 0.00 0.00 0.00 86 1010.0
20260505060046 48 0 0.0 0.0 0.00 0.00 0.00 86 1010.1
20260505054612 48 0 0.0 0.0 0.00 0.00 0.00 85 1010.1
20260505053047 48 0 0.0 0.0 0.00 0.00 0.00 85 1010.1
20260505051551 48 0 0.0 0.0 0.00 0.00 0.00 84 1010.0
20260505041600 49 0 0.0 0.0 0.00 0.00 0.00 82 1009.9
20260505040043 49 0 0.0 0.0 0.00 0.00 0.00 82 1009.9
20260505034550 49 0 0.0 0.0 0.00 0.00 0.00 82 1009.9
20260505033049 50 0 0.0 0.0 0.00 0.00 0.00 81 1009.8
20260505031543 50 0 0.0 0.0 0.00 0.00 0.00 81 1010.0
20260505030100 50 0 0.0 0.0 0.00 0.00 0.00 80 1010.0
20260505024545 51 0 0.0 0.0 0.00 0.00 0.00 78 1010.1
20260505023043 51 0 0.0 0.0 0.00 0.00 0.00 77 1010.0
20260505021555 52 0 0.0 0.0 0.00 0.00 0.00 75 1010.1
20260505020051 53 0 0.0 0.0 0.00 0.00 0.00 73 1010.1
20260505014540 54 0 0.0 0.0 0.00 0.00 0.00 72 1010.1
20260505013047 55 0 0.0 0.0 0.00 0.00 0.00 69 1010.1
20260505011542 56 0 0.0 0.0 0.00 0.00 0.00 67 1009.9
20260505010107 57 0 0.0 0.0 0.00 0.00 0.00 64 1009.7
20260505004549 58 0 0.0 0.0 0.00 0.00 0.00 62 1009.7
20260505003051 60 0 0.0 0.0 0.00 0.00 0.00 59 1009.6
20260505001545 62 0 0.0 0.0 0.00 0.00 0.00 55 1009.4
20260505000052 65 0 0.0 0.0 0.00 0.00 0.00 50 1009.2
20260504234551 67 0 0.0 0.0 0.00 0.00 0.00 47 1009.0
20260504233054 68 0 0.0 0.0 0.00 0.00 0.00 45 1008.7
20260504231546 69 0 0.0 0.0 0.00 0.00 0.00 43 1008.6
20260504230107 70 0 0.0 2.0 0.00 0.00 0.00 42 1008.6
20260504224601 71 0 0.0 0.0 0.00 0.00 0.00 42 1008.5